Terug naar catalogus

STARLINK-32861

ActiefCommunicatieVLEO
NORAD 62870·PAYLOAD·🇺🇸 United States

Gelanceerd Feb 1, 2025 vanaf Vandenberg Space Force Base

Loading…

Volgende Passages (komende 24 uur)

TLE

VersSource: CelesTrak SupGP

Epoch: Sep 14, 2026, 22:55 UTC

1 62870C 25022S   26257.95534722  .00021531  00000+0  63635-3 0  2577
2 62870  53.1588 325.9663 0001133  93.5014 187.1905 15.34369241    19

Volg STARLINK-32861 in realtime met AllMySat

Download on the App Store